Погода в Алис-Спрингс

Австралия     23°43′24″S   133°53′01″E
темп.,
°C
ветер,
м/с
пор.,
м/с
влажн.,
%
обл.,
%
осадки,
мм/ч
давл.,
гПа
погр.,
м
6 марта, сб
сб600:30+24вюв34140 0.0 101025
03:30+23всв34160 0.0 100924
06:30+21св23200 0.0 100923
09:30+29всв44130 0.0 1010897
12:30+33юв331166 0.0 10081605
15:30+35ююв451149 0.0 10052450
18:30+33юв56130 0.0 1006263
21:30+28в45165 0.0 100883
7 марта, вс
вс700:30+26всв441732 0.0 100753
03:30+25ссв451823 0.0 100637
06:30+24ссв451872 0.0 100744
09:30+31ссв681386 0.0 1009604
12:30+34ссз341193 0.0 10061534
15:30+36с361296 0.0 10033224
18:30+33зсз9102075 0.0 1003353
21:30+31сз342368 0.0 100553
8 марта, пн
пн800:30+31зсз682395 0.0 1005196
03:30+26з463298 0.0 1005105
06:30+24зюз3441100 0.0 100750
09:30+28зсз342787 0.0 1008402
12:30+34юз55191 0.0 10071395
15:30+36ююз75191 0.0 10041634
18:30+34ю562229 0.0 1006460
21:30+28юв343129 0.0 100871
9 марта, вт
вт900:30+27в233428 0.0 100924
03:30+26ююв343663 0.0 100966
06:30+23юв473723 0.0 1011137
09:30+29вюв672711 0.0 1012936
12:30+34св35230 0.0 10102354
15:30+36сз352024 0.0 10073184
18:30+32ссз893386 0.1 1008641
21:30+26ссв365049 2.9 1011207
10 марта, ср
ср1000:30+25зюз22550 0.8 101145
03:30+24сз11627 1.6 101126
06:30+24ю226023 0.3 101330
09:30+27всв234511 0.9 1014644
12:30+34ссз453014 0.0 10122432
15:30+35зсз452943 0.1 10082590
18:30+34ююв133060 0.1 1009935
21:30+30ссв234364 1.2 101250